Location: LDNL
(36.4545°S, 141.6685°E)
Time: 18:51:15
(UTC+11:00)

BlueWalker 3 - Visible Passes

Search period start: 06 December 2022 00:00
Search period end: 16 December 2022 00:00
Orbit: 501 x 518 km, 53.2° (Epoch: 05 December)

Date Brightness Start Highest point End Pass type
(mag) Time Alt. Az. Time Alt. Az. Time Alt. Az.
06 Dec 3.6 02:48:46 34° SE 02:48:46 34° SE 02:51:09 10° SE visible
06 Dec 4.5 04:24:14 10° WSW 04:26:28 14° SSW 04:28:41 10° S visible
07 Dec 3.9 02:30:43 28° SE 02:30:43 28° SE 02:32:44 10° SE visible
07 Dec 4.6 04:06:00 10° SW 04:08:06 14° SSW 04:10:12 10° S visible
08 Dec 4.2 02:12:37 24° SSE 02:12:37 24° SSE 02:14:20 10° SE visible
08 Dec 4.7 03:47:47 10° SW 03:49:45 13° SSW 03:51:43 10° S visible
09 Dec 4.4 01:54:25 21° SSE 01:54:25 21° SSE 01:55:54 10° SE visible
09 Dec 4.8 03:29:33 10° SW 03:31:23 13° SSW 03:33:13 10° S visible
10 Dec 4.5 01:36:08 20° SSE 01:36:08 20° SSE 01:37:28 10° SE visible
10 Dec 4.8 03:11:20 10° SW 03:13:01 12° SSW 03:14:42 10° S visible
11 Dec 4.5 01:17:46 19° SSE 01:17:46 19° SSE 01:19:02 10° SE visible
11 Dec 4.9 02:53:08 10° SW 02:54:39 12° SSW 02:56:10 10° S visible
12 Dec 4.4 00:59:15 20° SSE 00:59:15 20° SSE 01:00:36 10° SE visible
12 Dec 5.0 02:34:56 10° SW 02:36:16 11° SSW 02:37:37 10° S visible
13 Dec 4.2 00:40:31 22° SSE 00:40:31 22° SSE 00:42:08 10° SE visible
13 Dec 5.1 02:16:46 10° SW 02:17:54 11° SSW 02:19:02 10° S visible
13 Dec 5.1 05:36:24 10° S 05:38:31 14° SSE 05:40:39 10° ESE visible
14 Dec 3.8 00:21:25 28° S 00:21:25 28° S 00:23:41 10° SSE visible
14 Dec 5.2 01:58:38 10° SSW 01:59:31 11° SSW 02:00:24 10° S visible
14 Dec 5.1 05:17:54 10° S 05:20:08 14° SSE 05:22:23 10° ESE visible
15 Dec 3.3 00:01:27 38° SW 00:01:31 38° SW 00:05:13 10° SSE visible
15 Dec 5.4 01:40:36 10° SSW 01:41:08 10° SSW 01:41:40 10° S visible
15 Dec 5.1 04:59:23 10° S 05:01:44 15° SSE 05:04:06 10° ESE visible
15 Dec 2.9 22:01:23 10° N 22:04:35 25° NE 22:07:49 10° ESE visible
15 Dec 3.5 23:39:28 10° WNW 23:43:06 36° SW 23:46:46 10° SSE visible
